GW3885 Weather Reports


Display with metric or nautical units.
time (UTC)temp
F
wind
direction
speed
MPH
gust
MPH
rain 1hr
in
rain 24hr
in
rain mn
in
humidity
%
barometer
mb
20260506091555 75 129 2.0 7.0 0.00 0.00 0.00 95 1007.4
20260506091056 75 121 2.0 7.0 0.00 0.00 0.00 95 1007.5
20260506090554 75 142 2.0 7.0 0.00 0.00 0.00 94 1007.5
20260506090055 75 135 2.0 6.0 0.00 0.00 0.00 94 1007.4
20260506085555 75 147 3.0 6.0 0.00 0.00 0.00 94 1007.3
20260506085057 75 128 1.0 5.0 0.00 0.00 0.00 94 1007.3
20260506084557 75 128 2.0 7.0 0.00 0.00 0.00 94 1007.4
20260506084055 75 134 1.0 7.0 0.00 0.00 0.00 94 1007.4
20260506083556 75 127 2.0 7.0 0.00 0.00 0.00 94 1007.4
20260506083102 75 132 3.0 8.0 0.00 0.00 0.00 94 1007.4
20260506082555 75 150 3.0 8.0 0.00 0.00 0.00 94 1007.4
20260506082055 76 128 4.0 8.0 0.00 0.00 0.00 94 1007.4
20260506081556 76 152 3.0 9.0 0.00 0.00 0.00 93 1007.4
20260506081057 76 134 3.0 9.0 0.00 0.00 0.00 93 1007.4
20260506080555 76 128 4.0 9.0 0.00 0.00 0.00 93 1007.5
20260506080107 76 121 3.0 9.0 0.00 0.00 0.00 93 1007.5
20260506073118 76 153 4.0 9.0 0.00 0.00 0.00 92 1007.7
20260506072556 76 170 4.0 9.0 0.00 0.00 0.00 92 1007.8
20260506072055 76 142 5.0 9.0 0.00 0.00 0.00 92 1007.8
20260506071602 76 137 4.0 11.0 0.00 0.00 0.00 92 1007.9
20260506071058 76 136 5.0 12.0 0.00 0.00 0.00 92 1008.0
20260506070554 76 159 5.0 14.0 0.00 0.00 0.00 92 1008.1
20260506062055 76 142 3.0 8.0 0.00 0.00 0.00 92 1008.7
20260506061601 76 148 3.0 8.0 0.00 0.00 0.00 92 1008.7
20260506061055 76 148 3.0 8.0 0.00 0.00 0.00 92 1008.7
20260506060556 76 123 3.0 10.0 0.00 0.00 0.00 92 1008.8
20260506051052 77 168 7.0 15.0 0.00 0.00 0.00 91 1008.4
20260506050552 77 162 7.0 14.0 0.00 0.00 0.00 91 1008.3
20260506045054 77 140 7.0 16.0 0.00 0.00 0.00 91 1008.2
20260506044601 77 192 7.0 14.0 0.00 0.00 0.00 91 1008.1
20260506044051 77 154 7.0 12.0 0.00 0.00 0.00 91 1008.1
20260506043553 77 121 5.0 17.0 0.00 0.00 0.00 91 1008.1
20260506043101 77 157 7.0 17.0 0.00 0.00 0.00 91 1008.0
20260506042553 77 144 9.0 17.0 0.00 0.00 0.00 91 1007.9
20260506042053 77 126 6.0 17.0 0.00 0.00 0.00 91 1007.8
20260506041557 77 163 7.0 17.0 0.00 0.00 0.00 91 1007.9
20260506041052 76 115 7.0 14.0 0.00 0.00 0.00 91 1007.8
20260506040552 76 144 5.0 14.0 0.00 0.00 0.00 91 1007.9
20260506040058 76 161 5.0 14.0 0.00 0.00 0.00 91 1007.8
20260506035552 76 167 7.0 14.0 0.00 0.00 0.00 91 1007.8
20260506035052 77 153 6.0 14.0 0.00 0.00 0.00 91 1007.8
20260506034604 77 140 6.0 14.0 0.00 0.00 0.00 90 1007.7
20260506034051 77 133 7.0 17.0 0.00 0.00 0.00 90 1007.7
20260506033554 77 136 8.0 17.0 0.00 0.00 0.00 90 1007.7
20260506033109 77 130 6.0 16.0 0.00 0.00 0.00 90 1007.7
20260506032556 77 170 8.0 16.0 0.00 0.00 0.00 90 1007.6
20260506032056 77 140 7.0 16.0 0.00 0.00 0.00 90 1007.7
20260506031555 77 144 6.0 16.0 0.00 0.00 0.00 90 1007.6
20260506031052 77 144 6.0 15.0 0.00 0.00 0.00 90 1007.7
20260506030555 77 153 6.0 16.0 0.00 0.00 0.00 90 1007.7
20260506025553 76 135 8.0 15.0 0.00 0.00 0.00 90 1007.5
20260506025055 76 122 5.0 16.0 0.00 0.00 0.00 90 1007.4
20260506024614 77 167 8.0 16.0 0.00 0.00 0.00 90 1007.4
20260506024052 77 150 6.0 14.0 0.00 0.00 0.00 90 1007.2
20260506023552 77 128 8.0 17.0 0.00 0.00 0.00 90 1007.1
20260506023104 77 156 7.0 17.0 0.00 0.00 0.00 90 1006.9
20260506022552 77 105 8.0 17.0 0.00 0.00 0.00 90 1006.9
20260506022053 77 161 9.0 16.0 0.00 0.00 0.00 90 1006.9
20260506021559 77 142 6.0 15.0 0.00 0.00 0.00 90 1006.9
20260506021055 77 135 6.0 15.0 0.00 0.00 0.00 89 1006.9
20260506020551 77 170 6.0 14.0 0.00 0.00 0.00 89 1006.8
20260506020100 77 139 8.0 15.0 0.00 0.00 0.00 89 1006.8
20260506015554 77 115 6.0 15.0 0.00 0.00 0.00 89 1006.7
20260506015052 77 123 6.0 17.0 0.00 0.00 0.00 89 1006.7
20260506014559 77 137 7.0 17.0 0.00 0.00 0.00 89 1006.5
20260506014100 77 138 9.0 16.0 0.00 0.00 0.00 88 1006.5
20260506013554 77 211 7.0 18.0 0.00 0.00 0.00 88 1006.4
20260506013106 77 152 9.0 18.0 0.00 0.00 0.00 88 1006.3
20260506012552 77 158 7.0 19.0 0.00 0.00 0.00 88 1006.4
20260506012054 77 159 10.0 19.0 0.00 0.00 0.00 88 1006.3
20260506011623 77 165 9.0 17.0 0.00 0.00 0.00 88 1006.2
20260506011053 77 143 6.0 17.0 0.00 0.00 0.00 88 1006.0
20260506010553 77 148 9.0 16.0 0.00 0.00 0.00 87 1006.0
20260506010115 78 136 8.0 16.0 0.00 0.00 0.00 87 1006.0
20260506005551 78 147 8.0 20.0 0.00 0.00 0.00 87 1005.9
20260506005057 78 161 10.0 21.0 0.00 0.00 0.00 87 1006.0
20260506004556 78 164 9.0 21.0 0.00 0.00 0.00 87 1006.0
20260506004052 78 134 6.0 16.0 0.00 0.00 0.00 87 1005.8
20260506003552 78 128 8.0 16.0 0.00 0.00 0.00 86 1005.7
20260506003058 78 163 9.0 15.0 0.00 0.00 0.00 86 1005.8
20260506002554 79 164 7.0 17.0 0.00 0.00 0.00 85 1005.7
20260506002051 79 165 7.0 18.0 0.00 0.00 0.00 85 1005.7
20260506001601 79 160 7.0 21.0 0.00 0.00 0.00 85 1005.6
20260506001052 79 111 10.0 21.0 0.00 0.00 0.00 85 1005.6
20260506000558 79 157 9.0 22.0 0.00 0.00 0.00 85 1005.6
20260506000100 79 137 8.0 24.0 0.00 0.00 0.00 85 1005.5
20260505235556 79 182 11.0 24.0 0.00 0.00 0.00 85 1005.4
20260505235055 79 182 10.0 21.0 0.00 0.00 0.00 85 1005.5
20260505234556 79 143 12.0 22.0 0.00 0.00 0.00 85 1005.5
20260505234055 79 130 11.0 22.0 0.00 0.00 0.00 84 1005.5
20260505233553 79 150 11.0 20.0 0.00 0.00 0.00 84 1005.6
20260505233056 80 135 8.0 19.0 0.00 0.00 0.00 84 1005.5
20260505232556 80 118 7.0 20.0 0.00 0.00 0.00 84 1005.6
20260505232052 80 128 9.0 20.0 0.00 0.00 0.00 84 1005.7
20260505231557 80 151 11.0 18.0 0.00 0.00 0.00 84 1005.6
20260505231052 80 181 9.0 18.0 0.00 0.00 0.00 84 1005.7
20260505230552 79 143 9.0 20.0 0.00 0.00 0.00 84 1005.7
20260505230101 80 144 9.0 20.0 0.00 0.00 0.00 84 1005.7
20260505225552 80 132 11.0 23.0 0.00 0.00 0.00 84 1005.6
20260505225053 79 112 7.0 25.0 0.00 0.00 0.00 84 1005.7
20260505224554 80 115 11.0 25.0 0.00 0.00 0.00 83 1005.9
20260505224054 80 138 11.0 18.0 0.00 0.00 0.00 83 1005.9
20260505223551 80 153 7.0 16.0 0.00 0.00 0.00 84 1006.1
20260505223100 80 153 6.0 18.0 0.00 0.00 0.00 83 1006.0
20260505222551 80 134 7.0 18.0 0.00 0.00 0.00 83 1006.0
20260505222054 80 134 9.0 19.0 0.00 0.00 0.00 82 1006.1
20260505221603 81 138 9.0 19.0 0.00 0.00 0.00 82 1006.1
20260505221052 81 173 9.0 20.0 0.00 0.00 0.00 82 1006.1
20260505220552 81 169 12.0 20.0 0.00 0.00 0.00 82 1006.1
20260505220107 81 123 8.0 17.0 0.00 0.00 0.00 82 1006.1
20260505215552 81 140 8.0 17.0 0.00 0.00 0.00 82 1006.1
20260505215052 81 141 9.0 18.0 0.00 0.00 0.00 81 1006.1
20260505214600 81 150 8.0 19.0 0.00 0.00 0.00 81 1006.1
20260505214052 82 136 10.0 19.0 0.00 0.00 0.00 80 1006.2
20260505213551 82 129 7.0 18.0 0.00 0.00 0.00 81 1006.1
20260505213054 82 126 10.0 18.0 0.00 0.00 0.00 80 1006.2
20260505212554 82 148 10.0 18.0 0.00 0.00 0.00 79 1006.5
20260505212052 82 123 8.0 18.0 0.00 0.00 0.00 80 1006.6
20260505211554 82 134 9.0 18.0 0.00 0.00 0.00 80 1006.7
20260505211123 82 129 11.0 18.0 0.00 0.00 0.00 79 1006.6
20260505210551 82 157 10.0 17.0 0.00 0.00 0.00 80 1006.6
20260505210055 82 107 9.0 17.0 0.00 0.00 0.00 81 1006.7
20260505205555 82 120 8.0 24.0 0.00 0.00 0.00 80 1006.7
20260505205055 82 149 12.0 24.0 0.00 0.00 0.00 78 1006.7
20260505204600 83 138 8.0 20.0 0.00 0.00 0.00 79 1006.7
20260505204052 83 153 10.0 20.0 0.00 0.00 0.00 78 1006.8
20260505203556 83 175 8.0 17.0 0.00 0.00 0.00 79 1006.9
20260505203052 83 141 10.0 17.0 0.00 0.00 0.00 78 1007.1
20260505202552 83 144 9.0 16.0 0.00 0.00 0.00 78 1007.2
20260505202052 83 155 8.0 18.0 0.00 0.00 0.00 79 1007.1
20260505201553 83 148 7.0 19.0 0.00 0.00 0.00 79 1007.2
20260505201055 83 112 9.0 19.0 0.00 0.00 0.00 79 1007.4
20260505200558 83 140 10.0 18.0 0.00 0.00 0.00 78 1007.4
20260505200054 84 140 7.0 18.0 0.00 0.00 0.00 77 1007.3
20260505195551 84 152 11.0 18.0 0.00 0.00 0.00 75 1007.4
20260505195054 85 157 6.0 22.0 0.00 0.00 0.00 75 1007.4
20260505194602 85 178 10.0 22.0 0.00 0.00 0.00 73 1007.5
20260505194052 84 187 9.0 18.0 0.00 0.00 0.00 74 1007.5
20260505193556 83 161 9.0 18.0 0.00 0.00 0.00 76 1007.5
20260505193054 83 150 7.0 20.0 0.00 0.00 0.00 77 1007.7
20260505192551 84 132 9.0 20.0 0.00 0.00 0.00 75 1007.7
20260505192052 84 155 11.0 21.0 0.00 0.00 0.00 74 1007.7
20260505191554 85 148 13.0 22.0 0.00 0.00 0.00 74 1007.7
20260505191056 85 136 9.0 22.0 0.00 0.00 0.00 76 1007.7
20260505190551 83 150 8.0 16.0 0.00 0.00 0.00 78 1007.7
20260505190056 83 113 7.0 16.0 0.00 0.00 0.00 78 1007.8
20260505185555 82 149 7.0 17.0 0.00 0.00 0.00 78 1007.9
20260505185055 82 157 9.0 17.0 0.00 0.00 0.00 78 1008.0
20260505184555 82 130 9.0 19.0 0.00 0.00 0.00 78 1008.0
20260505184055 82 153 10.0 19.0 0.00 0.00 0.00 78 1008.1
20260505183557 82 146 9.0 18.0 0.00 0.00 0.00 76 1008.1
20260505183057 83 192 9.0 21.0 0.00 0.00 0.00 75 1008.2
20260505182551 83 217 10.0 23.0 0.00 0.00 0.00 76 1008.1
20260505182051 83 155 8.0 23.0 0.00 0.00 0.00 76 1008.0
20260505181555 83 160 10.0 21.0 0.00 0.00 0.00 77 1008.0
20260505181054 83 210 6.0 16.0 0.00 0.00 0.00 77 1008.1
20260505180551 83 192 8.0 16.0 0.00 0.00 0.00 77 1008.2
20260505180058 82 194 7.0 20.0 0.00 0.00 0.00 77 1008.2
20260505175556 82 217 7.0 20.0 0.00 0.00 0.00 80 1008.3
20260505175052 81 201 7.0 15.0 0.00 0.00 0.00 81 1008.3
20260505174553 81 166 6.0 14.0 0.00 0.00 0.00 81 1008.5
20260505174055 81 117 7.0 15.0 0.00 0.00 0.00 81 1008.4
20260505173554 81 209 8.0 15.0 0.00 0.00 0.00 82 1008.4
20260505173100 80 188 5.0 13.0 0.00 0.00 0.00 83 1008.5
20260505172558 79 180 7.0 13.0 0.00 0.00 0.00 85 1008.7
20260505172054 79 160 7.0 20.0 0.00 0.00 0.00 84 1008.7
20260505171557 79 192 8.0 20.0 0.00 0.00 0.00 84 1008.7
20260505171054 79 174 5.0 11.0 0.00 0.00 0.00 84 1008.8
20260505170552 79 134 3.0 11.0 0.00 0.00 0.00 85 1008.7
20260505170055 79 198 2.0 13.0 0.00 0.00 0.00 84 1008.8
20260505165551 80 176 7.0 15.0 0.00 0.00 0.00 84 1008.8
20260505165054 80 217 7.0 15.0 0.00 0.00 0.00 85 1008.9
20260505164600 79 184 3.0 16.0 0.00 0.00 0.00 85 1008.9
20260505164054 79 182 4.0 16.0 0.00 0.00 0.00 85 1008.9
20260505163554 79 164 6.0 12.0 0.00 0.00 0.00 85 1008.9
20260505163054 80 146 5.0 12.0 0.00 0.00 0.00 85 1008.9
20260505162555 79 165 7.0 12.0 0.00 0.00 0.00 87 1008.8
20260505162056 79 178 6.0 15.0 0.00 0.00 0.00 88 1008.9
20260505161601 78 200 7.0 15.0 0.00 0.00 0.00 88 1009.0
20260505161055 78 167 6.0 14.0 0.00 0.00 0.00 89 1008.9
20260505160554 77 202 6.0 14.0 0.00 0.00 0.00 89 1008.9
20260505153110 76 169 6.0 12.0 0.00 0.00 0.00 92 1008.7
20260505152558 76 148 4.0 10.0 0.00 0.00 0.00 92 1008.6
20260505152055 76 157 4.0 12.0 0.00 0.00 0.00 91 1008.6
20260505151556 76 150 5.0 12.0 0.00 0.00 0.00 92 1008.7
20260505151056 76 174 2.0 10.0 0.00 0.00 0.00 92 1008.7
20260505150551 76 163 3.0 10.0 0.00 0.00 0.00 92 1008.7
20260505140551 74 188 4.0 8.0 0.00 0.00 0.00 94 1008.6
20260505140104 74 190 4.0 9.0 0.00 0.00 0.00 94 1008.6
20260505124559 73 172 5.0 10.0 0.00 0.00 0.00 95 1008.2
20260505124056 72 175 3.0 10.0 0.00 0.00 0.00 95 1008.1
20260505123600 72 180 4.0 10.0 0.00 0.00 0.00 95 1008.1
20260505123059 72 147 4.0 9.0 0.00 0.00 0.00 95 1008.0
20260505122559 72 173 4.0 9.0 0.00 0.00 0.00 95 1008.0
20260505122051 72 144 3.0 11.0 0.00 0.00 0.00 96 1007.9
20260505121553 72 181 4.0 11.0 0.00 0.00 0.00 96 1007.8
20260505121055 71 169 4.0 11.0 0.00 0.00 0.00 96 1007.8
20260505120553 71 163 4.0 9.0 0.00 0.00 0.00 96 1007.8
20260505120106 71 162 2.0 10.0 0.00 0.00 0.00 96 1007.8
20260505115554 71 159 2.0 11.0 0.00 0.00 0.00 96 1007.9
20260505115055 71 158 3.0 11.0 0.00 0.00 0.00 96 1007.9
20260505114556 71 172 3.0 8.0 0.00 0.00 0.00 96 1008.0
20260505114053 71 167 3.0 8.0 0.00 0.00 0.00 96 1008.0
20260505113554 71 167 2.0 9.0 0.00 0.00 0.00 96 1008.0
20260505113115 70 128 2.0 9.0 0.00 0.00 0.00 96 1007.9
20260505112555 70 137 4.0 8.0 0.00 0.00 0.00 96 1007.9
20260505112051 70 138 3.0 9.0 0.00 0.00 0.00 96 1008.0
20260505111602 70 101 4.0 9.0 0.00 0.00 0.00 96 1007.7
20260505111058 70 122 4.0 9.0 0.00 0.00 0.00 96 1007.7
20260505110552 70 158 3.0 8.0 0.00 0.00 0.00 96 1007.8
20260505102056 69 167 4.0 8.0 0.00 0.00 0.00 96 1007.7
20260505101556 69 147 3.0 7.0 0.00 0.00 0.00 96 1007.8
20260505101055 69 158 3.0 6.0 0.00 0.00 0.00 96 1007.8
20260505100555 69 168 2.0 5.0 0.00 0.00 0.00 96 1007.9
20260505100104 69 154 2.0 7.0 0.00 0.00 0.00 96 1007.9
20260505095553 69 178 2.0 7.0 0.00 0.00 0.00 96 1008.0
20260505095051 69 167 1.0 5.0 0.00 0.00 0.00 96 1008.1
20260505094601 69 167 2.0 5.0 0.00 0.00 0.00 96 1008.1
20260505094054 68 170 2.0 5.0 0.00 0.00 0.00 96 1008.0
20260505093554 68 164 2.0 7.0 0.00 0.00 0.00 96 1008.0
20260505093107 68 169 1.0 7.0 0.00 0.00 0.00 96 1008.2
20260505092550 68 0 2.0 6.0 0.00 0.00 0.00 96 1008.2
20260505092052 68 153 2.0 6.0 0.00 0.00 0.00 95 1008.1